Weather in Sunny Isles Beach

United States     25°56′01″N   80°07′18″W
temp.,
°C
wind,
m/s
gust,
m/s
humid.,
%
clouds,
%
prec.,
mm/h
press.,
hPa
HPBL,
m
7 may, fri
fri723:00+26ssw33690 5.5 1017171
02:00+27sw33670 5.5 1015320
05:00+26w55754 0.8 1015401
08:00+25wnw66780 1.7 1016369
11:00+27wnw55645 0.3 1017904
14:00+29e115151 0.3 1015190
17:00+27ese446996 1.9 1014380
20:00+25e887996 10.6 1016477
8 may, sat
sat823:00+25ene55700 0.1 1017367
02:00+26ene66730 0.2 1016757
05:00+26ene776954 0.2 10161095
08:00+26ene876687 0.3 10171270
11:00+26ene876495 0.0 10191153
14:00+26ene8764100 0.0 10191201
17:00+26ene886227 0.0 10181171
20:00+26e886313 0.0 10191185
9 may, sun
sun923:00+26e986527 0.0 10201221
02:00+26e886691 0.0 10191326
05:00+26ese8767100 0.0 10191327
08:00+25ese8871100 0.2 10201035
11:00+26e997348 0.1 1021890
14:00+26ese887285 0.5 10201140
17:00+26ese787347 1.3 1019899
20:00+26ese787333 3.6 1019947
10 may, mon
mon1023:00+27ese887413 1.9 1019964
02:00+27se997436 2.8 10181027
05:00+27se997393 0.7 1017962
08:00+28se996825 1.8 10181278
11:00+27sse77701 0.3 10191130
14:00+28sse66680 0.6 10181098
17:00+28se66710 0.0 1017837
20:00+28se78680 0.0 1017796
11 may, tue
tue1123:00+28se66739 0.0 1018811
02:00+28ese337381 0.1 1018820
05:00+27sse45729 1.7 1017778
08:00+27sse44713 2.2 1018842
11:00+27se32714 0.4 1019626
14:00+27se43704 0.5 1019489
17:00+28ese666927 0.0 1017579
20:00+28e5570100 0.0 1017668